Regional Weather Roundup
Issued by NWS

Home | Current Version | Previous Version | Text Only | Print | Product List | Glossary Off
Versions: 1 2 3 4 5 6 7 8 9 10 11 12 13 14 15 16 17 18 19 20 21 22 23 24 25 26 27 28 29 30 31 32 33 34 35 36 37 38 39 40 41 42 43 44 45 46 47 48 49 50

583
ASUS43 KOAX 171610
RWRNE

WEATHER ROUNDUP FOR NEBRASKA
NATIONAL WEATHER SERVICE OMAHA NE
1100 AM CDT TUE OCT 17 2017

NOTES: SATELLITE DATA IS BEING USED TO AUGMENT CLOUD COVER ABOVE
       12000 FEET.
       "FAIR" INDICATES FEW OR NO CLOUDS BELOW 12,000 FEET WITH NO
       SIGNIFICANT WEATHER AND/OR OBSTRUCTIONS TO VISIBILITY.


NEZ001>004-019>022-054>056-171700-
NEBRASKA PANHANDLE

CITY           SKY/WX    TMP DP  RH WIND       PRES   REMARKS
SCOTTSBLUFF    SUNNY     51  27  39 CALM      30.17S
ALLIANCE       SUNNY     60  27  28 W13       30.14S
CHADRON        SUNNY     59  27  29 W7        30.11F
GORDON         FAIR      55  33  43 SW5       30.11S
KIMBALL        SUNNY     69  20  15 SW15      30.21S
SIDNEY         SUNNY     68  28  22 SW7       30.18F
$$

NEZ057>060-069>072-079>082-171700-
SOUTHWEST NEBRASKA

CITY           SKY/WX    TMP DP  RH WIND       PRES   REMARKS
NORTH PLATTE   SUNNY     55  40  56 W6        30.16S
IMPERIAL       SUNNY     58  31  35 CALM      30.18S
LEXINGTON      SUNNY     59  42  53 W6        30.14F
MCCOOK         SUNNY     55  39  54 W6        30.16S
OGALLALA       SUNNY     53  34  49 CALM      30.17F
$$

NEZ005>010-023>029-035>040-094-171700-
NORTH CENTRAL NEBRASKA

CITY           SKY/WX    TMP DP  RH WIND       PRES   REMARKS
VALENTINE      SUNNY     63  35  35 SW7       30.09F
AINSWORTH      SUNNY     66  37  33 SW8       30.10S
BROKEN BOW     SUNNY     65  43  44 SW5       30.12F
O`NEILL        SUNNY     64  45  50 SW6       30.09S
ORD            SUNNY     60  42  51 NW5       30.10S
THEDFORD       SUNNY     67  33  27 SW6       30.13F
$$

NEZ041-046>049-061>064-073>077-083>087-171700-
SOUTH CENTRAL NEBRASKA

CITY           SKY/WX    TMP DP  RH WIND       PRES   REMARKS
GRAND ISLAND   SUNNY     61  43  51 CALM      30.11S
AURORA         SUNNY     61  41  47 CALM      30.10S
HASTINGS       SUNNY     62  42  47 NW7       30.11S
HEBRON         SUNNY     60  41  50 SW7       30.11F
HOLDREGE       SUNNY     64  41  42 N6        30.13F
KEARNEY        SUNNY     63  42  46 NW6       30.13S
YORK           SUNNY     57  43  58 CALM      30.10S
$$

NEZ011>018-030>034-042>045-171700-
NORTHEAST NEBRASKA

CITY           SKY/WX    TMP DP  RH WIND       PRES   REMARKS
NORFOLK        SUNNY     60  42  51 CALM      30.06F
ALBION         SUNNY     63  45  51 NW3       30.09S
BLAIR          SUNNY     59  43  56 S9        30.10S
COLUMBUS       SUNNY     56  43  61 CALM      30.09F
FREMONT        SUNNY     57  42  57 SW3       30.11R
TEKAMAH        SUNNY     58  41  53 VRB3      30.10S
WAYNE          SUNNY     60  42  51 CALM      30.07F
$$

NEZ050>053-065>068-078-088>093-171700-
SOUTHEAST NEBRASKA

CITY           SKY/WX    TMP DP  RH WIND       PRES   REMARKS
LINCOLN        SUNNY     59  43  55 SW8       30.12F
OMAHA EPPLEY   SUNNY     59  43  55 S9        30.11F
BEATRICE       SUNNY     60  44  54 SW10G16   30.12S
FALLS CITY     SUNNY     62  42  47 S14G22    30.14F
NEBRASKA CITY  SUNNY     61  44  53 SW13      30.13S
PLATTSMOUTH    SUNNY     60  44  55 S13       30.11F
$$

NEZ044-045-051>053-067-171700-
OMAHA AREA

CITY           SKY/WX    TMP DP  RH WIND       PRES   REMARKS
OMAHA EPPLEY   SUNNY     59  43  55 S9        30.11F
BLAIR          SUNNY     59  43  56 S9        30.10S
FREMONT        SUNNY     57  42  57 SW3       30.11R
MILLARD        SUNNY     60  44  55 SW3       30.11F
OFFUTT AFB     SUNNY     59  43  56 S7        30.11F
PLATTSMOUTH    SUNNY     60  44  55 S13       30.11F
WAHOO          FAIR      59  41  52 S6        30.10S
$$




USA.gov is the U.S. government's official web portal to all federal, state and local government web resources and services.